Ellensburg, WA
on Wednesday, February 20, 2013

Wednesday
Previous Day Next Day
Daily Summary
 ActualAverage (KYKM)Record (KYKM)
Temperature
Mean Temperature °F 37°F  
Max Temperature 46°F 48°F 63°F (1982)
Min Temperature 21°F 26°F 8°F (1986)
Degree Days
Heating Degree Days 32 28  
Month to date heating degree days 594  
Since 1 July heating degree days 4312  
Cooling Degree Days 0 0  
Month to date cooling degree days 0  
Year to date cooling degree days 0  
Moisture
Dew Point 21°F   
Average Humidity 62    
Maximum Humidity 78    
Minimum Humidity 37    
Precipitation
Precipitation 0.00 in 0.03 in 0.72 in (1982)
Month to date precipitation 0.57  
Year to date precipitation 1.71  
Snow
Snow 0.00 in 0.10 in 4.60 in (1948)
Month to date snowfall 2.0  
Year to date snowfall 7.3  
Since 1 July snowfall 20.3  
Snow Depth in   
Wind
Wind Speed 5 mph   
Max Wind Speed 20 mph   
Max Gust Speed 22 mph   
Visibility 10 miles   
Events     

Key: T is trace of precipitation, MM is missing value
Source: NWS Daily Summary
Time(PST)TemperatureDew PointHumidity Pressure Visibility Wind DirectionWind SpeedGust SpeedPrecipitationEvents Conditions
12:53 AM 27.0°F 19.9°F 75% 29.96 in 10.0 miles SSW 3.5 mph - N/A   Clear
1:53 AM 25.0°F 19.0°F 78% 29.97 in 10.0 miles East 3.5 mph - N/A   Clear
2:53 AM 24.1°F 17.1°F 75% 29.97 in 10.0 miles East 4.6 mph - N/A   Clear
3:53 AM 21.9°F 16.0°F 78% 29.98 in 10.0 miles NE 4.6 mph - N/A   Clear
4:53 AM 24.1°F 16.0°F 71% 29.99 in 10.0 miles Calm Calm - N/A   Clear
5:53 AM 24.1°F 17.1°F 75% 30.01 in 10.0 miles SE 3.5 mph - N/A   Clear
6:53 AM 21.0°F 14.0°F 74% 30.03 in 10.0 miles NE 3.5 mph - N/A   Clear
8:53 AM 34.0°F 24.1°F 67% 30.02 in 10.0 miles Calm Calm - N/A   Clear
9:53 AM 37.0°F 24.1°F 59% 30.01 in 10.0 miles Calm Calm - N/A   Clear
11:53 AM 44.1°F 24.1°F 45% 29.99 in 10.0 miles Calm Calm - N/A   Clear
12:53 PM 46.9°F 24.1°F 41% 29.97 in 10.0 miles WSW 8.1 mph - N/A   Clear
1:53 PM 46.9°F 23.0°F 39% 29.96 in 10.0 miles NW 19.6 mph - N/A   Partly Cloudy
2:53 PM 46.0°F 21.0°F 37% 29.95 in 10.0 miles NNW 15.0 mph - N/A   Mostly Cloudy
3:53 PM 44.1°F 21.9°F 42% 29.96 in 10.0 miles NW 15.0 mph 21.9 mph N/A   Partly Cloudy
4:53 PM 43.0°F 24.1°F 47% 29.96 in 10.0 miles NW 10.4 mph - N/A   Overcast
5:53 PM 37.9°F 24.1°F 57% 29.98 in 10.0 miles WNW 6.9 mph - N/A   Scattered Clouds
6:53 PM 34.0°F 23.0°F 64% 30.00 in 10.0 miles NNW 8.1 mph - N/A   Clear
8:53 PM 30.0°F 21.9°F 72% 30.00 in 10.0 miles North 5.8 mph - N/A   Clear
9:53 PM 28.0°F 21.0°F 75% 30.00 in 10.0 miles Calm Calm - N/A   Clear
10:53 PM 26.1°F 18.0°F 71% 30.01 in 10.0 miles Calm Calm - N/A   Clear
11:53 PM 27.0°F 18.0°F 69% 30.00 in 10.0 miles Calm Calm - N/A   Clear
Moon Phase
Feb. 20 Feb. 25 Mar. 04 Mar. 11 Mar. 19
Sunrise:06:57 AM (PST) Moon Rise:12:48 PM (PST)2/20
Sunset:05:34 PM (PST) Moon Set:03:33 AM (PST)2/20

Copyright © 2014 The Weather Underground, Inc.